Location: Saint-Palais-sur-Mer
(45.6429°N, 1.0859°W)
Time: 00:55:47
(UTC+01:00)

Tiros 1 despin weight - Pass Details

Date: 11 February 2026
Orbit: 556 x 593 km, 48.2° (Epoch: 13 March)

Event Time Altitude Azimuth Distance (km) Brightness Sun altitude
Rises 17:48:55 0° 207° (SSW) 2,721 ? 5.0°
Reaches altitude 10° 17:51:31 10° 192° (SSW) 1,828 ? 4.6°
Maximum altitude 17:54:45 22° 141° (SE) 1,236 ? 4.1°
Drops below altitude 10° 17:58:00 10° 90° (E) 1,837 ? 3.6°
Sets 18:00:37 0° 75° (ENE) 2,738 ? 3.2°
